Mosby, MO

4:21 AM CDT on March 23, 2017 (GMT -0500)
Clay County Regional

Weather History for KGPH - December, 2013

Change the Weather History Date:

Saturday, December 14, 2013

  Actual Average (KMKC) Record (KMKC)
Temperature  
Mean Temperature 26 °F -  
Max Temperature 33 °F 40 °F 64 °F (2014)
Min Temperature 19 °F 25 °F 10 °F (2008)
Degree Days  
Heating Degree Days 39    
Moisture  
Dew Point 25 °F    
Average Humidity 88    
Maximum Humidity 100    
Minimum Humidity 74    
Precipitation  
Precipitation 0.00 in - - ()
Sea Level Pressure  
Sea Level Pressure 30.10 in    
Wind  
Wind Speed 11 mph (NW)    
Max Wind Speed 18 mph    
Max Gust Speed 24 mph    
Visibility 7 miles    
Events Snow    
Averages and records for this station are not official NWS values.
T = Trace of Precipitation, MM = Missing Value Source: NWS Daily Summary

Daily Weather History Graph

Daily Weather History Graph

Search for Another Location

Airport or City:

Trip Planner

Search our weather history database for the weather conditions in past years. The results will help you decide how hot, cold, wet, or windy it might be!

Date:

Astronomy

Dec. 14, 2013 Rise Set
Actual Time 7:29 AM CST 4:54 PM CST
Civil Twilight 6:59 AM CST 5:24 PM CST
Nautical Twilight 6:25 AM CST 5:58 PM CST
Astronomical Twilight 5:52 AM CST 6:31 PM CST
Moon 3:16 PM CST (12/14) 4:51 AM CST (12/14)
Length of Visible Light 10h 25m
Length of Day
9h 25m
Waxing Gibbous, 94% of the Moon is Illuminated
Dec 14
Waxing Gibbous
Dec 17
Full
Dec 25
Last Quarter
Jan 1
New
Jan 7
First Quarter

Hourly Weather History & Observations

Time (CST) Temp. Windchill Dew Point Humidity Pressure Visibility Wind Dir Wind Speed Gust Speed Precip Events Conditions
12:15 AM 33.8 °F 30.8 °F 33.8 °F 100% 29.90 in 3.0 mi North 3.5 mph - N/A   Light Drizzle
12:35 AM 33.8 °F 28.6 °F 33.8 °F 100% 29.90 in 5.0 mi North 5.8 mph - N/A   Light Drizzle
12:55 AM 33.8 °F 26.4 °F 33.8 °F 100% 29.90 in 5.0 mi North 9.2 mph - N/A   Mist
1:15 AM 33.8 °F 25.3 °F 33.8 °F 100% 29.90 in 5.0 mi North 11.5 mph - N/A   Overcast
1:35 AM 33.8 °F 25.8 °F 33.8 °F 100% 29.90 in 5.0 mi North 10.4 mph - N/A   Overcast
1:55 AM 33.8 °F 25.8 °F 33.8 °F 100% 29.91 in 10.0 mi North 10.4 mph - N/A   Overcast
2:15 AM 33.8 °F 25.8 °F 33.8 °F 100% 29.91 in 10.0 mi North 10.4 mph - N/A   Overcast
2:35 AM 33.8 °F 23.9 °F 32.0 °F 93% 29.91 in 10.0 mi North 15.0 mph - N/A   Overcast
2:55 AM 32.0 °F 22.1 °F 32.0 °F 100% 29.91 in 10.0 mi North 13.8 mph 20.7 mph N/A   Overcast
3:15 AM 32.0 °F 22.5 °F 32.0 °F 100% 29.93 in 7.0 mi North 12.7 mph - N/A   Overcast
3:35 AM 32.0 °F 21.6 °F 32.0 °F 100% 29.93 in 3.0 mi NNW 15.0 mph 18.4 mph N/A Snow Light Snow
3:55 AM 32.0 °F 21.2 °F 30.2 °F 93% 29.94 in 4.0 mi NNW 16.1 mph - N/A Snow Light Snow
4:15 AM 30.2 °F 19.8 °F 30.2 °F 100% 29.95 in 5.0 mi NNW 13.8 mph 18.4 mph N/A   Overcast
4:35 AM 30.2 °F 19.8 °F 30.2 °F 100% 29.96 in 5.0 mi NNW 13.8 mph - N/A   Overcast
4:55 AM 30.2 °F 18.9 °F 28.4 °F 93% 29.97 in 5.0 mi NNW 16.1 mph 23.0 mph N/A   Overcast
5:15 AM 30.2 °F 18.1 °F 28.4 °F 93% 29.98 in 5.0 mi NNW 18.4 mph 21.9 mph N/A   Overcast
5:35 AM 30.2 °F 18.5 °F 28.4 °F 93% 29.99 in 5.0 mi NNW 17.3 mph 21.9 mph N/A   Overcast
5:55 AM 30.2 °F 20.2 °F 28.4 °F 93% 30.00 in 5.0 mi NNW 12.7 mph - N/A   Overcast
6:15 AM 28.4 °F 17.5 °F 28.4 °F 100% 30.01 in 5.0 mi NNW 13.8 mph 23.0 mph N/A   Overcast
6:35 AM 28.4 °F 16.6 °F 28.4 °F 100% 30.02 in 5.0 mi NNW 16.1 mph - N/A   Overcast
6:55 AM 28.4 °F 17.0 °F 26.6 °F 93% 30.03 in 5.0 mi NNW 15.0 mph 21.9 mph N/A   Overcast
7:15 AM 28.4 °F 17.5 °F 26.6 °F 93% 30.05 in 5.0 mi NNW 13.8 mph 21.9 mph N/A   Overcast
7:35 AM 28.4 °F 15.8 °F 26.6 °F 93% 30.05 in 5.0 mi NNW 18.4 mph 24.2 mph N/A   Overcast
7:55 AM 28.4 °F 16.2 °F 26.6 °F 93% 30.06 in 4.0 mi NNW 17.3 mph 23.0 mph N/A   Overcast
8:15 AM 28.4 °F 17.5 °F 26.6 °F 93% 30.07 in 4.0 mi NNW 13.8 mph 23.0 mph N/A   Overcast
8:35 AM 28.4 °F 17.5 °F 26.6 °F 93% 30.08 in 4.0 mi NNW 13.8 mph 18.4 mph N/A   Overcast
8:55 AM 28.4 °F 17.5 °F 26.6 °F 93% 30.09 in 5.0 mi NNW 13.8 mph 20.7 mph N/A   Mist
9:15 AM 28.4 °F 16.2 °F 26.6 °F 93% 30.10 in 5.0 mi NNW 17.3 mph 20.7 mph N/A   Overcast
9:35 AM 28.4 °F 17.0 °F 26.6 °F 93% 30.12 in 5.0 mi NNW 15.0 mph - N/A   Overcast
9:55 AM 28.4 °F 18.0 °F 24.8 °F 86% 30.12 in 5.0 mi NW 12.7 mph 19.6 mph N/A   Overcast
10:15 AM 28.4 °F 19.1 °F 26.6 °F 93% 30.13 in 5.0 mi NW 10.4 mph 17.3 mph N/A   Overcast
10:35 AM 28.4 °F 17.5 °F 24.8 °F 86% 30.14 in 5.0 mi NW 13.8 mph - N/A   Overcast
10:55 AM 28.4 °F 16.2 °F 23.0 °F 80% 30.14 in 5.0 mi NW 17.3 mph 20.7 mph N/A   Overcast
11:15 AM 28.4 °F 18.5 °F 24.8 °F 86% 30.14 in 5.0 mi NW 11.5 mph 20.7 mph N/A   Overcast
11:35 AM 28.4 °F 16.2 °F 24.8 °F 86% 30.15 in 5.0 mi NW 17.3 mph 23.0 mph N/A   Overcast
11:55 AM 28.4 °F 17.5 °F 24.8 °F 86% 30.14 in 5.0 mi NW 13.8 mph - N/A   Overcast
12:15 PM 26.6 °F 14.3 °F 23.0 °F 86% 30.14 in 7.0 mi NW 16.1 mph - N/A   Overcast
12:35 PM 26.6 °F 15.2 °F 23.0 °F 86% 30.14 in 7.0 mi NW 13.8 mph 17.3 mph N/A   Overcast
12:55 PM 26.6 °F 15.7 °F 23.0 °F 86% 30.13 in 7.0 mi NW 12.7 mph - N/A   Overcast
1:15 PM 28.4 °F 19.1 °F 23.0 °F 80% 30.13 in 7.0 mi NW 10.4 mph 16.1 mph N/A   Overcast
1:35 PM 28.4 °F 18.0 °F 23.0 °F 80% 30.12 in 7.0 mi NW 12.7 mph 18.4 mph N/A   Overcast
1:55 PM 28.4 °F 18.0 °F 23.0 °F 80% 30.12 in 7.0 mi NW 12.7 mph - N/A   Overcast
2:15 PM 28.4 °F 18.0 °F 23.0 °F 80% 30.12 in 7.0 mi NW 12.7 mph - N/A   Overcast
2:35 PM 28.4 °F 18.0 °F 23.0 °F 80% 30.13 in 7.0 mi NW 12.7 mph - N/A   Overcast
2:55 PM 28.4 °F 18.0 °F 23.0 °F 80% 30.14 in 7.0 mi NNW 12.7 mph 17.3 mph N/A   Overcast
3:15 PM 28.4 °F 17.5 °F 23.0 °F 80% 30.14 in 10.0 mi NW 13.8 mph 18.4 mph N/A   Overcast
3:35 PM 28.4 °F 19.1 °F 23.0 °F 80% 30.15 in 7.0 mi NW 10.4 mph - N/A   Overcast
3:55 PM 28.4 °F 18.5 °F 23.0 °F 80% 30.16 in 7.0 mi NNW 11.5 mph - N/A   Overcast
4:15 PM 28.4 °F 19.1 °F 21.2 °F 74% 30.17 in 7.0 mi NNW 10.4 mph - N/A   Overcast
4:35 PM 28.4 °F 19.1 °F 21.2 °F 74% 30.18 in 10.0 mi NW 10.4 mph 16.1 mph N/A   Overcast
4:55 PM 28.4 °F 19.7 °F 21.2 °F 74% 30.18 in 10.0 mi NW 9.2 mph - N/A   Overcast
5:15 PM 28.4 °F 18.5 °F 21.2 °F 74% 30.19 in 10.0 mi NW 11.5 mph - N/A   Overcast
5:35 PM 26.6 °F 16.2 °F 21.2 °F 80% 30.19 in 10.0 mi NW 11.5 mph - N/A   Overcast
5:55 PM 26.6 °F 16.8 °F 21.2 °F 80% 30.20 in 10.0 mi NW 10.4 mph 16.1 mph N/A   Overcast
6:15 PM 26.6 °F 17.5 °F 21.2 °F 80% 30.20 in 10.0 mi NW 9.2 mph - N/A   Overcast
6:35 PM 26.6 °F 15.7 °F 21.2 °F 80% 30.21 in 10.0 mi NW 12.7 mph - N/A   Overcast
6:55 PM 26.6 °F 18.2 °F 19.4 °F 74% 30.21 in 10.0 mi NW 8.1 mph - N/A   Overcast
7:15 PM 26.6 °F 19.1 °F 19.4 °F 74% 30.22 in 10.0 mi WNW 6.9 mph - N/A   Overcast
7:35 PM 26.6 °F 17.5 °F 19.4 °F 74% 30.22 in 10.0 mi WNW 9.2 mph - N/A   Overcast
7:55 PM 24.8 °F 16.9 °F 19.4 °F 80% 30.21 in 10.0 mi WNW 6.9 mph - N/A   Overcast
8:15 PM 24.8 °F 16.9 °F 19.4 °F 80% 30.22 in 10.0 mi NW 6.9 mph - N/A   Scattered Clouds
8:35 PM 23.0 °F 18.4 °F 19.4 °F 86% 30.22 in 10.0 mi NW 3.5 mph - N/A   Clear
8:55 PM 23.0 °F 18.4 °F 19.4 °F 86% 30.23 in 10.0 mi WNW 3.5 mph - N/A   Clear
9:15 PM 23.0 °F 17.0 °F 19.4 °F 86% 30.22 in 10.0 mi WNW 4.6 mph - N/A   Clear
9:35 PM 23.0 °F 17.0 °F 17.6 °F 80% 30.23 in 10.0 mi WNW 4.6 mph - N/A   Clear
9:55 PM 23.0 °F 17.0 °F 17.6 °F 80% 30.23 in 10.0 mi WNW 4.6 mph - N/A   Clear
10:15 PM 21.2 °F - 17.6 °F 86% 30.23 in 10.0 mi Calm Calm - N/A   Clear
10:35 PM 21.2 °F 16.4 °F 17.6 °F 86% 30.22 in 10.0 mi West 3.5 mph - N/A   Clear
10:55 PM 21.2 °F - 17.6 °F 86% 30.22 in 10.0 mi Calm Calm - N/A   Clear
11:15 PM 21.2 °F 16.4 °F 17.6 °F 86% 30.22 in 10.0 mi SW 3.5 mph - N/A   Clear
11:35 PM 19.4 °F - 17.6 °F 93% 30.23 in 10.0 mi Calm Calm - N/A   Clear
11:55 PM 19.4 °F - 17.6 °F 93% 30.22 in 10.0 mi Calm Calm - N/A   Clear